Location: Allos
(44.2333°N, 6.6333°E)
Time: 04:42:09
(UTC+00:00)

LEMUR 2 KOBYSZCZE - Visible Passes

Search period start: 15 June 2021 00:00
Search period end: 25 June 2021 00:00
Orbit: 459 x 483 km, 97.4° (Epoch: 14 June)

Date Brightness Start Highest point End Pass type
(mag) Time Alt. Az. Time Alt. Az. Time Alt. Az.
15 Jun ? 20:50:31 12° E 20:52:10 16° ENE 20:54:25 10° NNE visible
15 Jun ? 22:24:36 33° WSW 22:25:03 35° W 22:28:22 10° NNW visible
16 Jun ? 21:55:48 56° S 21:56:30 84° WSW 22:00:06 10° NNW visible
17 Jun ? 21:27:00 31° ESE 21:28:04 40° ENE 21:31:27 10° N visible
17 Jun ? 23:01:05 13° W 23:01:27 13° W 23:03:14 10° WNW visible
18 Jun ? 20:58:12 15° E 20:59:44 19° ENE 21:02:21 10° NNE visible
18 Jun ? 22:32:17 27° WSW 22:32:44 28° W 22:35:53 10° NW visible
19 Jun ? 22:03:28 52° SSW 22:04:07 67° WSW 22:07:42 10° NNW visible
20 Jun ? 21:34:39 37° ESE 21:35:38 50° ENE 21:39:08 10° N visible
20 Jun ? 23:08:44 11° W 23:09:07 11° W 23:10:02 10° WNW visible
21 Jun ? 21:05:50 18° ESE 21:07:15 23° ENE 21:10:09 10° NNE visible
21 Jun ? 22:39:54 23° WSW 22:40:21 23° W 22:43:16 10° NW visible
22 Jun ? 20:37:43 10° E 20:38:59 12° ENE 20:40:16 10° NE visible
22 Jun ? 22:11:05 46° SW 22:11:42 53° W 22:15:13 10° NNW visible
23 Jun ? 21:42:15 44° SE 21:43:09 64° ENE 21:46:43 10° N visible
24 Jun ? 21:13:25 22° ESE 21:14:43 28° ENE 21:17:50 10° N visible
24 Jun ? 22:47:29 19° WSW 22:47:55 19° W 22:50:33 10° NW visible
